Vorticity
4 9 7 6 6 7 5 4 6 9 9 8 8 9 6 7 11 14 12 6 1 4 7 7 7 7 7 8 12 13 12 12 10 9 8 8 9 9 9 10 11 12
7 5 6 7 5 6 6 4 6 9 13 13 8 7 8 13 17 16 13 5 1 1 2 5 7 8 9 8 10 12 12 11 10 9 9 8 9 9 10 11 11 12
11 4 3 5 5 10 11 7 5 5 8 9 6 4 2 10 26 32 22 9 5 3 3 8 10 8 9 8 9 11 11 11 9 9 10 9 8 8 9 11 11 12
11 4 2 5 7 10 7 3 4 5 7 5 5 8 3 2 17 34 31 15 5 1 2 9 10 7 8 9 10 11 11 11 10 9 9 7 7 6 6 7 8 9
4 -0 2 6 5 5 4 4 7 9 9 7 8 13 11 5 6 18 27 19 10 8 8 10 9 9 11 11 12 12 11 11 9 8 7 5 5 4 4 4 4 5
1 0 1 5 4 5 5 5 7 7 7 7 8 9 10 11 9 10 17 19 19 21 19 15 11 11 12 12 13 11 10 9 7 7 5 4 4 4 4 4 4 5
3 4 3 3 3 3 4 6 9 9 8 7 8 8 8 11 12 11 12 14 16 18 19 18 13 11 10 10 11 9 8 7 6 6 5 5 6 6 7 7 7 7
10 11 7 4 4 5 6 9 10 8 6 5 5 7 8 10 12 13 12 11 13 14 16 15 11 9 8 7 7 8 8 8 6 5 5 5 7 7 8 8 8 8
20 16 10 8 9 10 10 10 9 7 6 5 5 7 9 10 10 10 10 10 11 12 14 13 10 8 7 7 8 8 9 8 6 6 6 6 7 6 6 6 6 8
19 13 10 10 11 12 11 9 8 7 6 5 5 7 8 7 6 6 8 9 9 9 10 10 8 6 5 6 9 11 12 11 9 9 8 7 7 7 6 6 6 5
15 11 10 12 13 12 11 10 9 8 7 5 6 8 8 7 6 5 7 7 8 9 10 11 9 7 6 5 6 8 10 9 9 9 8 7 6 5 5 6 6 6
8 6 6 7 8 9 11 12 10 7 6 6 8 8 8 9 9 8 7 5 4 6 9 12 12 9 8 10 9 7 5 6 7 7 7 7 6 6 6 6 4 4
1 -0 2 4 4 5 9 10 8 7 6 5 6 5 5 7 7 7 7 4 2 3 6 10 13 12 10 9 9 10 8 4 4 6 7 7 6 8 8 7 4 3
4 5 8 8 6 5 5 5 6 6 4 4 4 3 2 3 3 3 2 0 -0 0 2 6 12 15 15 13 12 14 15 12 7 5 5 3 2 6 9 9 9 6
5 6 5 2 3 4 3 3 3 3 4 5 3 2 2 2 2 1 1 1 1 -0 0 2 3 4 8 10 8 7 13 20 17 8 3 2 2 4 5 6 8 10
2 1 -1 -0 4 4 3 4 3 2 3 3 2 3 3 2 2 2 3 3 2 2 3 2 1 1 1 1 0 -0 2 11 19 17 8 3 4 6 3 2 6 11
5 5 5 6 6 5 6 6 4 3 2 1 3 3 2 4 5 3 3 4 4 4 3 2 2 3 2 2 4 4 0 2 13 21 16 5 2 4 2 3 5 7
5 5 5 5 5 5 5 4 3 4 3 2 4 2 3 7 5 2 3 4 4 3 2 4 5 3 3 5 5 5 4 4 6 15 23 18 6 2 3 3 4 6
2 2 2 3 4 3 3 4 5 6 4 4 6 5 4 4 2 3 5 4 5 7 5 4 3 3 4 5 5 5 5 6 4 5 16 20 12 10 13 7 -1 1
-2 -1 -0 1 2 2 3 3 3 4 5 8 12 13 10 8 5 6 10 12 13 12 11 10 10 11 10 7 7 8 5 5 5 2 5 9 9 17 22 10 -7 -9
1 2 1 1 1 -0 0 2 6 10 13 16 19 18 16 14 11 12 16 18 13 7 7 9 9 10 11 9 8 10 8 6 6 6 6 2 3 14 19 8 -4 -6
4 4 4 6 8 11 15 19 20 20 15 12 13 15 19 23 22 16 8 3 2 3 5 7 6 5 6 7 8 10 11 8 7 11 12 6 4 7 6 3 3 1
8 9 12 13 14 16 18 14 10 8 4 1 2 5 10 13 13 7 -2 -6 -5 -5 -3 4 7 3 -0 2 5 8 11 12 10 9 9 7 7 5 6 12 12 5
10 11 11 7 2 1 -1 -6 -7 -5 -6 -5 -4 -4 -3 -3 -3 -6 -8 -7 -8 -9 -6 -1 -3 -7 -5 0 2 4 10 14 13 11 10 11 12 10 9 12 11 10
4 3 -1 -6 -6 -4 -5 -6 -4 -4 -4 -4 -3 -1 1 1 0 -0 -1 -1 0 1 4 5 2 -1 1 3 2 2 9 13 13 13 12 7 7 15 19 17 15 13
-4 -5 -7 -7 -4 -2 -3 -2 0 1 2 2 2 2 2 2 3 4 4 3 3 3 3 4 5 4 3 5 4 5 12 16 13 15 12 3 8 26 34 32 27 20
Height
5767 5768 5768 5768 5768 5768 5768 5768 5768 5769 5768 5768 5768 5769 5769 5768 5769 5768 5769 5769 5769 5770 5769 5769 5769 5769 5769 5769 5769 5769 5769 5769 5769 5770 5769 5770 5769 5769 5769 5769 5769 5769
5764 5765 5766 5766 5766 5766 5766 5766 5766 5766 5766 5766 5766 5766 5765 5765 5765 5765 5765 5766 5767 5767 5767 5767 5767 5767 5767 5767 5768 5768 5768 5768 5768 5768 5768 5768 5768 5768 5768 5768 5768 5768
5762 5762 5763 5764 5765 5765 5765 5765 5764 5764 5764 5764 5764 5763 5762 5761 5760 5760 5761 5762 5764 5764 5765 5765 5765 5765 5765 5765 5766 5766 5766 5766 5766 5766 5766 5766 5766 5766 5766 5766 5767 5766
5760 5760 5760 5761 5762 5763 5763 5763 5763 5763 5762 5762 5761 5760 5759 5758 5757 5756 5757 5759 5760 5761 5762 5762 5763 5763 5763 5763 5764 5764 5764 5764 5764 5764 5764 5764 5765 5765 5765 5765 5765 5765
5757 5757 5757 5758 5759 5761 5761 5761 5761 5761 5761 5760 5759 5758 5757 5756 5755 5754 5755 5756 5757 5758 5759 5760 5760 5761 5761 5762 5762 5762 5762 5762 5762 5762 5762 5762 5763 5763 5763 5763 5763 5764
5755 5755 5755 5756 5757 5758 5759 5759 5759 5759 5758 5758 5757 5756 5755 5755 5754 5753 5753 5753 5754 5755 5756 5757 5758 5759 5759 5760 5760 5760 5760 5760 5760 5760 5760 5761 5761 5761 5761 5761 5762 5762
5753 5753 5753 5754 5755 5755 5756 5756 5756 5756 5756 5756 5756 5755 5754 5753 5753 5752 5751 5751 5752 5752 5754 5755 5756 5757 5758 5758 5758 5758 5759 5759 5759 5759 5759 5759 5759 5759 5759 5760 5760 5760
5751 5751 5751 5752 5752 5753 5753 5754 5754 5754 5754 5754 5754 5753 5752 5752 5751 5751 5750 5750 5750 5751 5752 5753 5754 5755 5756 5756 5757 5757 5757 5757 5757 5757 5757 5757 5757 5757 5757 5758 5758 5758
5748 5748 5749 5749 5750 5751 5751 5751 5752 5752 5752 5752 5752 5752 5751 5750 5750 5750 5749 5749 5749 5750 5750 5751 5752 5753 5754 5754 5755 5755 5755 5755 5755 5755 5755 5755 5755 5755 5755 5756 5756 5756
5744 5745 5746 5747 5747 5748 5749 5749 5750 5750 5750 5750 5750 5750 5749 5749 5748 5748 5748 5748 5748 5749 5749 5750 5751 5751 5752 5752 5753 5753 5753 5753 5753 5753 5753 5753 5753 5753 5753 5753 5754 5754
5742 5743 5743 5744 5745 5746 5746 5747 5747 5747 5748 5748 5748 5748 5747 5746 5746 5746 5746 5746 5747 5747 5748 5748 5749 5749 5750 5750 5751 5751 5751 5751 5751 5751 5751 5751 5751 5751 5751 5751 5751 5751
5740 5741 5741 5742 5743 5743 5744 5745 5745 5745 5745 5746 5746 5745 5744 5744 5744 5744 5744 5744 5745 5745 5746 5746 5747 5747 5747 5748 5748 5748 5749 5749 5749 5749 5749 5749 5749 5749 5749 5749 5749 5749
5737 5738 5739 5739 5740 5741 5741 5742 5742 5743 5743 5743 5743 5742 5742 5741 5741 5741 5742 5742 5743 5743 5744 5744 5744 5744 5745 5745 5746 5746 5746 5746 5746 5746 5746 5747 5747 5747 5747 5747 5747 5746
5734 5735 5736 5737 5737 5738 5739 5739 5739 5739 5739 5740 5739 5739 5739 5739 5739 5739 5739 5740 5741 5741 5741 5741 5741 5741 5742 5742 5743 5743 5743 5744 5744 5743 5743 5744 5744 5744 5744 5744 5743 5743
5731 5733 5734 5734 5734 5735 5735 5736 5736 5736 5736 5736 5736 5736 5736 5736 5736 5737 5737 5737 5737 5738 5738 5738 5738 5738 5739 5739 5739 5740 5740 5740 5741 5741 5741 5741 5741 5741 5741 5740 5740 5739
5728 5729 5730 5730 5730 5731 5731 5732 5732 5732 5732 5733 5733 5733 5733 5733 5733 5733 5734 5734 5734 5734 5734 5734 5735 5735 5735 5735 5736 5736 5736 5737 5738 5738 5738 5738 5738 5738 5737 5737 5736 5735
5724 5724 5725 5726 5726 5726 5727 5727 5728 5728 5728 5729 5729 5729 5729 5729 5729 5729 5730 5730 5730 5730 5730 5730 5731 5731 5731 5731 5732 5732 5732 5733 5734 5734 5734 5734 5734 5734 5733 5733 5732 5731
5719 5719 5720 5720 5721 5722 5722 5723 5723 5724 5724 5724 5724 5724 5725 5725 5724 5724 5725 5725 5725 5725 5725 5726 5726 5726 5726 5727 5727 5727 5728 5728 5729 5729 5729 5730 5730 5730 5729 5729 5728 5727
5714 5714 5715 5715 5716 5717 5717 5718 5718 5719 5719 5719 5719 5719 5720 5720 5720 5720 5720 5720 5720 5720 5720 5721 5721 5721 5722 5722 5723 5723 5723 5723 5723 5724 5724 5724 5725 5725 5725 5724 5724 5723
5709 5709 5709 5710 5711 5711 5711 5712 5712 5712 5713 5713 5713 5714 5714 5714 5715 5714 5714 5715 5715 5715 5715 5716 5716 5717 5717 5717 5718 5718 5718 5718 5718 5718 5719 5719 5719 5720 5719 5719 5719 5718
5703 5703 5703 5704 5704 5705 5706 5705 5705 5705 5706 5707 5707 5707 5707 5708 5709 5709 5708 5709 5709 5710 5711 5710 5711 5712 5712 5712 5713 5713 5713 5713 5713 5714 5714 5714 5714 5714 5714 5713 5714 5713
5697 5697 5697 5698 5698 5699 5699 5699 5699 5700 5700 5701 5701 5702 5702 5703 5703 5704 5704 5704 5704 5705 5706 5706 5706 5707 5707 5707 5708 5708 5707 5708 5708 5708 5709 5708 5708 5709 5709 5708 5708 5708
5691 5691 5692 5692 5692 5693 5693 5694 5694 5695 5695 5696 5697 5697 5698 5698 5699 5700 5700 5699 5700 5700 5700 5700 5701 5701 5701 5702 5702 5702 5702 5702 5702 5702 5702 5702 5703 5704 5703 5703 5703 5702
5685 5686 5687 5687 5687 5687 5688 5689 5689 5689 5690 5690 5691 5692 5693 5693 5694 5695 5694 5694 5695 5694 5694 5695 5695 5695 5695 5696 5696 5696 5697 5696 5696 5696 5696 5696 5697 5697 5697 5698 5697 5696
5680 5681 5681 5681 5681 5681 5682 5682 5683 5683 5684 5684 5685 5685 5686 5686 5687 5688 5688 5688 5688 5688 5688 5689 5689 5689 5689 5689 5690 5691 5691 5690 5690 5690 5690 5691 5691 5690 5690 5691 5691 5690
5673 5674 5674 5674 5674 5674 5675 5675 5675 5676 5676 5677 5678 5678 5678 5679 5679 5680 5680 5681 5681 5681 5681 5682 5682 5682 5683 5683 5683 5684 5685 5684 5683 5683 5684 5685 5685 5684 5684 5684 5683 5683